loading
|

STARLINK-11263, 60725

Orbit data source: Space-Track

STARLINK-11263, 60725 is a payload satellite owned by SpaceX/Seattle (US) in LEO that was launched on Wed, 28 Aug 2024 UTC via an FALCON 9 launch vehicle from the Air Force Eastern Test Range (AFETR). Payloads include a variety of satellites, spacecraft, and rockets equipped with specific instruments for various scientific and technological missions. These include communications satellites like Starlink; space stations such as the ISS; scientific satellites like the Hubble; Earth observation satellites from companies like Planet Labs, Umbra, and HawkEye 360; GPS; miniature CubeSats for education and research; and military/defense satellites.

Loading next visibility...
Next conjunction unknown
Loading greatness...
STARLINK-11263 details
Identifier
60725, 2024-152F
Orbit
LEO
Last TLE update21 hours ago
Origin
Flag of USSpaceX/Seattle (US)
ManufacturerSpaceX/Seattle
MissionOperational spacecraft
Bus & MotorSTARLINK V2M, Unknown motor
Mass750 kg wet, ~700 kg dry
Launch date (UTC)
2024-08-28 (2 months ago)
Launch vehicle
FALCON 9
Launch site
Air Force Eastern Test Range (AFETR)
Object type
Payload
Rocket body
Debris
Shape & HBRUnknown
Radar Cross SectionLarge (>1 m²)

Expand to show TLE details & history

TLE from 21 hours ago
0 STARLINK-11263
1 60725U 24152F   24287.71841427  .00007844  00000-0  69628-4 0  9999
2 60725  53.1588 120.1297 0001374 130.4390 229.6748 15.69678583  8429
Epoch: 2024-10-13T17:14Z
Definitive object data (Epoch: 2024-10-13T17:14:30.992Z)
Latitude-0.00004°
Longitude-161.25534°
Altitude361.331 km
Speed7.693 km/s
True Right ascension08h 00m 31s
True Declination0° 00' 00"
Sunlit
Object was in daylight at TLE epoch
Predictive object data (real-time)
Latitude-41.21778°
Longitude153.65756°
Altitude374.351 km
Speed7.684 km/s
Apparent Right ascension01h 06m 39s
Apparent Declination-59° 45' 07"
Sunlit
Object is in partial shadow
Predictive observer data (real-time)
Local Sidereal Time08:58:04
Azimuth221.045° SW
Elevation-47.292°
Doppler factor1
Orbital elements
Apogee361.003 km
Perigee359.152 km
Semi-major axis6,738.215 km
Eccentricity0.0001374
Inclination53.1588°
RAAN120.1297°
Arg. of periapsis130.439°
True anomaly229.6628°
Mean anomaly229.6748°
Eccentric anomaly229.6688°
Mean motion3.92397 °/min
BSTAR0.000069628
Period91.74 mins
No data available

STARLINK-11263 Visibility forecast

Observer location: 39.9160978°, -105.1181434

Span
Click to sort rows by Start time (UTC) header in descending order
Start Az.
Max El. time (UTC)
Max El. Az.
Max El.
End time (UTC)
End Az.
4 mins2024-10-14 14:48:02.928Z174.17° S2024-10-14 14:50:02.928Z122.722° SE19.165°2024-10-14 14:52:02.928Z80.176° E
4 mins2024-10-14 22:48:02.928Z288.063° WNW2024-10-14 22:50:02.928Z196.507° SSW33.521°2024-10-14 22:52:02.928Z152.427° SSE